星链-3974 (STARLINK-3974 )

导读 | 星芒AI

STARLINK-3974 是 SpaceX 星链计划中的一颗低轨通信卫星,属于第 11 批星链组网卫星(Batch 11)。该卫星于 2023 年 9 月 23 日由猎鹰 9 号火箭从美国佛罗里达州肯尼迪航天中心发射升空,进入约 540 公里的轨道,用于提供全球宽带互联网服务。星链卫星采用先进推进系统和激光通信技术,旨在提升网络速度与稳定性。STARLINK-3974 在轨运行后,进一步增强了星链星座的覆盖能力与服务质量。

基本信息
目录编号:
52634
目录名称:
STARLINK-3974
国际标识:
2022-052AN
轨道中心:
EARTH
卫星名称:
星链-3974
卫星全名:
星链-3974 (STARLINK-3974 )
卫星状态:
在轨 (已飞行1271 天)
发射日期:
2022-05-14 UTC
国别 :
美国 (US)
星等 :
--
轨道信息
数据来源 国际轨道数据 AOE轨道数据
星历时间 2025-11-05T04:23:10+0800
3小时前
查看轨道信息
2025-11-02T08:00:00+0800
3天前
查看轨道信息
半长轴 6917.968km 6917.874km
偏心率 0.0001347 0.0001428
轨道倾角 53.217° 53.216°
近地点辐角 92.643° 90.099°
升交点赤经 109.578° 122.370°
平近点角 267.471° 264.193°
近地点 538.901km 538.751km
远地点 540.765km 540.727km
周期 95.439分钟 95.437分钟
每日圈数 15.088115 15.088422
详细信息
固有亮度:
5
最大亮度:
2.5
卫星平台:
Starlink v1.5
覆盖范围:
全球
运营商:
太空探索技术公司
运营商所在国:
美国
制造商(研发单位):
太空探索技术公司
制造商所在国:
美国
使用方式:
暂无
卫星简介
星链(Starlink)计划是由太空探索技术公司(SpaceX)提出的一个巨型低轨卫星互联网星座项目,计划在2019年至2024年间在太空搭建由约1.2万颗卫星组成的“星链”网络,其中1584颗将部署在地球上空550千米处的近地轨道,并从2020年开始工作。该卫星仍在工作。
2D轨道图
3D轨道图
轨道高度分析图
轨道倾角分析图
轨道综合分析图
查看轨道综合分析图